Location: L�Ave Maria
(50.7161°N, 1.5911°E)
Time: 23:22:40
(UTC+00:00)

Cosmos 1766 Rocket - Pass Details

Date: 10 July 2020
Orbit: 605 x 632 km, 82.5° (Epoch: 14 August)

Event Time Altitude Azimuth Distance (km) Brightness Sun altitude
Exits shadow 22:32:46 25° 167° (SSE) 1,260 4.5 -14.8°
Maximum altitude 22:35:12 60° 96° (E) 716 3.7 -14.9°
Drops below altitude 10° 22:39:35 10° 17° (NNE) 2,011 7.0 -15.1°
Sets 22:41:51 0° 14° (NNE) 2,927 8.1 -15.2°
